Location: Austin
(30.3000°N, 97.7500°W)
Time: 12:15:37
(UTC-06:00)

Cosmos 921 Rocket - Pass Details

Date: 04 November 2025
Orbit: 563 x 621 km, 75.8° (Epoch: 07 November)

Event Time Altitude Azimuth Distance (km) Brightness Sun altitude
Rises 19:02:28 0° 199° (SSW) 2,767 6.8 -18.0°
Reaches altitude 10° 19:04:39 10° 202° (SSW) 1,881 5.9 -18.5°
Maximum altitude 19:08:48 66° 284° (WNW) 640 3.3 -19.3°
Drops below altitude 10° 19:13:04 10° 8° (N) 1,927 5.4 -20.3°
Enters shadow 19:13:23 - 8° (N) 2,051 5.6 -20.3°
